Regional Weather Roundup
Issued by NWS

Home | Current Version | Previous Version | Graphics & Text | Print | Product List | Glossary On
Versions: 1 2 3 4 5 6 7 8 9 10 11 12 13 14 15 16 17 18 19 20 21 22 23 24 25 26 27 28 29 30 31 32 33 34 35 36 37 38 39 40 41 42 43 44 45 46 47 48 49 50
000
ASUS45 KABQ 192201
RWRNM
WEATHER ROUNDUP FOR NEW MEXICO
NATIONAL WEATHER SERVICE ALBUQUERQUE NM
400 PM MDT FRI SEP 19 2014

NOTE: "FAIR" MEANS FEW OR NO CLOUDS BELOW 12,000 FEET AGL WITH NO
       SIGNIFICANT WEATHER OR OBSTRUCTIONS TO VISION.

      THIS PRODUCT IS RELEASED AS TWO VERSIONS.  ONE VERSION NEAR
      THE TOP OF THE HOUR CONTAINING PRELIMINARY DATA FROM ALBUQUERQUE
      AND OTHER STATIONS.  A FINAL VERSION WITH ADDITIONAL DATA IS
      ISSUED ABOUT 10 MINUTES AFTER THE HOUR.

NMZ501-503-504-510>518-192300-
NORTHWEST PLATEAU/NORTHCENTRAL MOUNTAINS

CITY           SKY/WX    TMP DP  RH WIND       PRES   REMARKS
FARMINGTON     SUNNY     87  44  22 SW17      30.00F
LOS ALAMOS     MOSUNNY   78  40  25 SE6       30.13F
SANTA FE       MOSUNNY   81  46  29 VRB5G16   30.06F
TAOS           SUNNY     81  34  18 CALM      30.10S
ANGEL FIRE     MOCLDY    68  47  46 S14       30.21S

$$
NMZ402-403-502-505>509-192300-
WESTCENTRAL MOUNTAINS/SOUTHWEST MOUNTAINS

CITY           SKY/WX    TMP DP  RH WIND       PRES   REMARKS
GALLUP         MOSUNNY   86  37  17 N13       30.09F
GRANTS         SUNNY     81  45  28 SE7       30.11F
SILVER CITY    MOSUNNY   77  59  53 S9        30.06F

$$
NMZ407-409-411-412-192300-
SOUTHERN DESERTS

CITY           SKY/WX    TMP DP  RH WIND       PRES   REMARKS
LORDSBURG      FAIR      81  61  50 MISG      29.97F
DEMING         PTSUNNY   80  61  52 VRB6      29.97F
LAS CRUCES     PTSUNNY   78  62  57 W7        29.99F
ALAMOGORDO     CLOUDY    77  64  65 S6        29.97F
T OR C         SUNNY     82  58  43 NE7       29.99F

$$
NMZ519>523-192300-
CENTRAL VALLEYS/CENTRAL HIGHLANDS

CITY           SKY/WX    TMP DP  RH WIND       PRES   REMARKS
ALBUQUERQUE    MOSUNNY   81  54  39 VRB6      30.02F
DOUBLE EAGLE   MOSUNNY   81  50  34 VRB6      30.05F
CLINES CORNERS CLOUDY    69  55  60 S10       30.14F
BELEN          FAIR      80  56  43 S10       30.02F
SOCORRO        CLOUDY    81  58  46 NE10      30.01F

$$
NMZ524>526-539-540-192300-
SOUTHCENTRAL MOUNTAINS

CITY           SKY/WX    TMP DP  RH WIND       PRES   REMARKS
RUIDOSO        NOT AVBL

$$
NMZ527>531-192300-
NORTHEAST HIGHLANDS/NORTHEAST PLAINS

CITY           SKY/WX    TMP DP  RH WIND       PRES   REMARKS
LAS VEGAS      MOSUNNY   72  53  51 S15G22    30.13F
RATON          SUNNY     81  44  27 S9        30.05F
CLAYTON        PTSUNNY   79  58  48 S14G23    30.01S

$$
NMZ532>537-192300-
EASTCENTRAL PLAINS

CITY           SKY/WX    TMP DP  RH WIND       PRES   REMARKS
TUCUMCARI      PTSUNNY   78  59  51 SW12      29.97F
CANNON AFB     NOT AVBL
CLOVIS AIRPORT   N/A     72  64  78 S7        30.04F

$$
NMZ028-029-538-192300-
SOUTHEAST PLAINS

CITY           SKY/WX    TMP DP  RH WIND       PRES   REMARKS
ROSWELL        CLOUDY    72  68  87 NE7       29.95S
CARLSBAD       TSTM      77  77 100 SE7       29.90S FOG
HOBBS          LGT RAIN  66  66 100 E9        29.99S FOG


$$


USA.gov is the U.S. government's official web portal to all federal, state and local government web resources and services.